Date,TemperatureHighF,TemperatureAvgF,TemperatureLowF,DewpointHighF,DewpointAvgF,DewpointLowF,HumidityHigh,HumidityAvg,HumidityLow,PressureMaxIn,PressureMinIn,WindSpeedMaxMPH,WindSpeedAvgMPH,GustSpeedMaxMPH,PrecipitationSumIn
2013-1-1,35.9,33.2,31.1,32.8,28.6,23.0,90,83,63,30.23,30.08,10,2,0,0.06
2013-1-2,32.1,28.4,23.0,28.5,21.3,15.7,89,75,57,30.32,30.13,18,3,0,0.04
2013-1-3,34.7,26.1,18.1,22.1,17.7,0.0,84,71,55,30.35,30.27,22,5,0,0.04
2013-1-4,29.8,26.2,-17.1,21.2,19.1,-27.4,77,73,69,30.42,30.33,22,5,0,0.04
2013-1-5,39.2,30.9,22.6,26.6,21.4,17.4,83,68,52,30.50,30.32,19,4,0,0.04
2013-1-6,36.6,34.7,32.5,28.4,26.8,-23.1,81,72,7,30.35,30.20,16,3,0,0.04
2013-1-7,39.3,30.5,24.6,27.2,22.9,-26.2,84,74,59,30.56,30.33,14,3,0,0.04
2013-1-8,49.1,35.1,25.1,31.2,24.3,20.2,86,66,42,30.54,30.46,22,4,0,0.04
2013-1-9,45.8,39.2,31.2,42.3,31.5,21.9,90,74,64,30.62,30.48,7,3,0,0.04
2013-1-10,47.8,40.5,33.4,39.4,33.4,-14.7,89,76,63,30.71,30.54,61,6,0,0.04
2013-1-11,44.9,42.4,38.8,42.4,37.6,32.2,92,84,67,30.54,30.27,8,2,0,0.16
2013-1-12,69.0,54.3,42.8,60.3,49.7,40.6,95,85,66,30.36,30.27,7,1,0,0.04
2013-1-13,63.5,58.5,51.9,56.2,52.3,-19.1,91,81,70,30.29,30.19,9,2,0,0.10
2013-1-14,56.1,49.0,0.0,53.2,46.1,-5.8,100,89,84,30.42,30.22,8,2,1,0.59
2013-1-15,41.1,39.0,36.5,39.5,37.3,3.6,94,93,92,30.40,30.19,7,2,0,2.08
2013-1-16,42.6,38.0,36.1,41.3,36.4,0.0,95,94,93,30.21,30.06,12,1,0,0.74
2013-1-17,37.2,33.4,29.1,35.6,29.2,0.0,94,85,73,30.31,30.16,22,2,0,0.00
2013-1-18,38.4,29.5,22.1,25.0,19.6,12.1,85,68,46,30.57,30.31,18,4,0,0.14
2013-1-19,49.1,35.3,22.4,31.4,23.3,18.0,85,64,43,30.51,30.21,14,4,0,0.00
2013-1-20,45.1,37.6,0.0,31.4,22.9,13.1,71,55,44,30.23,30.15,21,4,0,3.81
2013-1-21,37.5,32.4,24.9,19.1,15.4,0.0,60,49,42,30.22,30.04,18,6,0,0.00
2013-1-22,37.5,37.5,37.5,17.0,17.0,17.0,43,43,43,30.04,30.04,8,8,0,0.00
2013-1-23,37.5,37.5,37.5,17.0,17.0,17.0,43,43,43,30.04,30.04,8,8,0,0.00
2013-1-24,37.5,37.5,37.5,17.0,17.0,17.0,43,43,43,30.04,30.04,8,8,0,0.00
2013-1-25,37.5,37.5,37.5,17.0,17.0,17.0,43,43,43,30.04,30.04,8,8,0,0.00
2013-1-26,37.5,37.5,37.5,17.0,17.0,17.0,43,43,43,30.04,30.04,8,8,0,0.00
2013-1-27,37.5,37.5,37.5,17.0,17.0,17.0,43,43,43,30.04,30.04,8,8,0,0.00
2013-4-17,68.3,61.6,0.0,99.9,56.0,54.2,100,73,66,30.38,30.34,0,0,0,3.81
2013-4-18,72.3,65.8,59.9,60.4,55.6,50.8,86,70,52,30.36,30.16,15,3,0,0.00
2013-4-19,67.2,62.0,50.1,59.0,55.1,45.5,89,79,68,30.17,29.89,21,4,0,0.45
2013-4-20,51.6,46.5,37.9,30.3,26.6,23.3,66,46,36,30.48,30.29,20,4,20,4.26
2013-4-21,58.2,44.2,0.0,34.0,28.2,22.3,70,54,38,30.63,30.47,9,3,9,4.26
2013-4-22,61.7,47.4,33.4,35.2,28.7,23.4,70,50,30,30.60,30.43,8,3,8,0.00
2013-4-23,69.0,51.6,35.4,43.4,34.6,24.7,75,54,30,30.46,30.25,10,3,10,0.00
2013-4-24,73.4,56.9,41.9,53.2,45.6,36.6,82,67,45,30.33,30.09,15,4,15,0.06
2013-4-25,58.4,45.2,32.5,37.2,29.9,22.6,82,58,27,30.50,30.32,14,4,14,0.00
2013-4-26,64.0,50.1,35.7,38.2,31.0,24.5,68,49,34,30.59,30.48,10,2,10,0.00
2013-4-27,64.0,54.7,45.3,43.9,37.3,28.2,68,52,44,30.53,30.42,10,3,10,0.00
2013-4-28,53.7,50.9,48.0,48.5,45.8,43.1,92,83,68,30.42,30.24,13,3,13,0.83
2013-4-29,66.0,54.0,47.4,54.6,49.3,44.9,92,85,65,30.26,30.18,8,3,8,0.06
2013-4-30,72.3,59.7,51.6,57.3,52.1,48.2,92,77,54,30.42,30.23,8,2,8,0.00
2013-5-1,70.8,60.1,52.5,53.9,48.1,39.4,85,66,44,30.52,30.41,11,3,11,0.00
2013-5-2,72.1,60.2,51.0,51.1,45.4,40.1,72,59,45,30.53,30.43,10,3,10,0.00
2013-5-3,65.8,55.0,43.1,46.0,42.8,25.9,83,65,40,30.47,30.38,12,3,12,0.00
2013-5-4,67.1,53.2,40.8,45.0,39.8,33.5,77,62,38,30.39,30.27,14,4,14,0.00
2013-5-5,65.3,52.8,43.7,45.4,37.3,25.9,79,57,31,30.32,30.20,16,4,16,0.00
2013-5-6,57.5,52.0,48.0,53.7,48.3,43.6,92,87,79,30.24,30.13,14,4,14,3.08
2013-5-7,53.7,50.5,47.4,51.7,48.4,45.5,93,92,91,30.18,30.09,12,2,12,1.43
2013-5-8,59.7,51.0,47.1,50.8,47.3,44.3,94,87,72,30.22,30.12,7,1,7,0.45
2013-5-9,71.4,58.7,47.4,57.0,49.6,44.3,94,74,48,30.30,30.19,14,4,14,0.00
2013-5-10,76.1,61.8,51.2,58.4,52.7,46.4,88,74,48,30.31,30.17,17,3,17,0.31
2013-5-12,48.9,43.4,42.4,30.6,30.2,29.6,62,59,47,30.27,30.22,6,2,6,10.83
2013-5-13,51.0,41.8,33.2,35.1,30.9,26.2,81,66,49,30.35,30.23,15,3,15,0.00
2013-5-14,66.0,48.3,30.3,41.8,34.5,26.8,89,63,34,30.39,30.20,10,3,10,0.00
2013-5-15,82.9,68.8,55.0,59.0,50.8,39.8,77,55,34,30.25,30.13,15,4,15,0.00
2013-5-16,75.7,66.2,56.8,60.1,53.2,47.7,87,64,52,30.27,30.16,16,3,16,0.14
2013-5-17,71.6,61.4,52.3,63.3,56.4,49.4,91,84,68,30.36,30.25,5,2,5,0.08
2013-5-18,72.8,63.8,57.9,63.9,58.9,55.0,93,85,70,30.39,30.30,6,2,6,0.08
2013-5-19,68.3,63.0,59.9,63.1,59.5,57.1,92,89,82,30.36,30.28,6,2,6,0.00
2013-5-20,73.7,65.4,58.6,66.7,61.5,56.3,93,87,74,30.34,30.25,6,1,6,0.31
2013-5-21,82.2,69.4,59.5,68.0,62.0,57.2,94,79,56,30.30,30.17,5,2,5,0.00
2013-5-22,80.9,66.2,57.7,65.7,60.1,54.5,91,82,56,30.26,30.14,7,3,7,0.45
2013-5-23,76.1,64.2,58.6,63.8,58.0,52.6,92,82,51,30.18,30.05,14,2,14,0.10
2013-5-24,58.4,48.4,42.2,52.6,41.2,34.8,87,77,56,30.41,30.10,18,4,18,0.00
2013-5-25,59.1,47.4,34.5,38.6,33.8,28.3,80,61,37,30.46,30.39,15,4,15,0.00
2013-5-26,66.0,52.9,39.9,40.4,35.4,30.7,83,55,28,30.46,30.40,10,3,10,0.10
2013-5-27,68.5,54.7,41.1,52.8,42.9,31.7,76,64,56,30.48,30.36,6,2,6,0.00
2013-5-28,79.5,66.8,52.5,62.0,55.0,48.4,88,68,44,30.43,30.32,10,2,10,0.00
2013-5-29,81.6,70.6,59.0,62.1,57.7,54.3,87,66,46,30.45,30.36,8,2,8,0.00
2013-5-30,84.9,71.5,58.4,65.3,58.8,54.1,87,66,39,30.49,30.39,9,3,9,0.00
2013-5-31,82.7,71.0,57.7,63.4,58.5,52.9,87,66,48,30.44,30.32,8,2,8,0.00
2013-6-1,69.9,63.8,61.8,60.3,56.8,55.6,84,78,66,30.34,30.31,1,1,3,0.00
2013-6-2,71.4,66.7,65.1,60.5,60.5,60.5,100,89,85,30.18,30.18,3,2,3,12.11
2013-6-3,71.9,66.3,57.9,63.3,58.4,52.6,100,76,65,30.26,30.15,8,2,0,0.00
2013-6-4,75.5,63.2,50.9,59.3,53.4,47.9,91,73,49,30.35,30.25,7,2,0,0.00
2013-6-5,76.1,66.6,58.2,64.2,58.7,51.5,89,76,65,30.37,30.25,9,2,0,0.00
2013-6-6,68.9,63.5,0.0,99.9,60.8,57.7,100,88,82,30.18,30.08,5,2,0,0.61
2013-6-7,69.6,63.8,58.1,66.6,60.9,54.4,93,90,85,30.11,29.95,9,2,0,1.16
2013-6-8,76.4,64.5,56.1,62.5,56.5,53.4,93,77,51,30.35,30.10,8,2,0,0.00
2013-6-9,82.4,68.6,57.9,65.2,59.4,53.1,90,75,44,30.42,30.30,9,2,0,14.31
2013-6-10,73.9,66.8,61.3,68.8,62.0,56.2,93,85,73,30.32,30.12,16,3,0,0.82
2013-6-11,73.4,65.0,60.0,63.9,59.8,55.8,92,84,69,30.23,30.13,12,3,0,0.02
2013-6-12,82.2,71.5,62.4,71.8,65.0,58.8,90,80,64,30.25,30.15,11,2,0,0.02
2013-6-13,73.7,66.8,58.8,99.9,63.0,29.0,100,87,77,30.16,29.93,18,2,0,16.69
2013-6-14,70.8,61.8,0.0,57.9,54.2,-16.8,87,76,61,30.30,30.07,22,3,0,16.69
2013-6-15,75.3,62.9,50.9,60.2,54.1,48.1,92,75,52,30.38,30.29,8,2,0,0.00
2013-6-16,76.1,65.2,55.4,66.2,59.3,51.4,91,82,68,30.32,30.25,22,7,0,0.14
2013-6-17,81.3,70.0,62.4,67.8,63.2,41.5,93,80,27,30.29,30.18,8,3,0,0.00
2013-6-18,72.1,65.3,60.0,64.8,61.4,56.5,93,87,75,30.22,30.11,6,4,0,1.41
2013-6-19,78.6,66.4,55.9,64.7,58.7,16.0,93,78,53,30.38,30.19,22,2,0,0.00
2013-6-20,80.2,69.3,61.5,65.7,61.4,57.9,91,77,52,30.48,30.38,11,2,0,0.00
2013-6-21,81.1,70.7,60.6,66.7,62.4,57.3,90,76,59,30.51,30.43,9,2,0,0.00
2013-6-22,82.5,68.9,57.2,64.4,58.9,53.5,88,72,51,30.51,30.38,6,3,0,0.00
2013-6-24,81.3,74.0,64.5,68.7,65.4,60.9,89,75,61,30.46,30.35,8,2,0,0.06
2013-6-25,82.9,70.8,60.8,69.8,64.3,28.8,93,81,61,30.40,30.26,7,3,0,0.00
2013-6-26,79.3,71.4,66.0,70.6,65.8,62.3,92,83,69,30.28,30.17,8,2,0,0.00
2013-6-27,73.2,67.8,64.9,67.1,63.9,61.9,92,88,78,30.18,30.01,12,2,0,0.10
2013-6-28,80.2,71.5,0.0,68.8,62.2,42.8,93,74,51,30.03,29.87,14,3,0,0.61
2013-6-29,77.0,67.1,56.8,66.3,59.7,52.7,88,78,61,30.00,29.89,8,1,0,0.53
2013-6-30,83.8,70.7,59.7,67.0,61.7,56.3,91,75,48,30.13,29.99,8,2,0,0.53
2013-7-1,80.4,70.0,63.8,69.1,63.6,58.7,90,81,65,30.24,30.10,8,2,0,0.53
2013-7-2,78.9,69.9,66.0,68.7,64.9,31.9,91,84,70,30.40,30.22,8,2,0,0.53
2013-7-3,75.7,68.6,65.1,70.2,65.0,62.4,92,88,79,30.49,30.38,6,2,0,0.61
2013-7-4,81.1,71.8,65.1,71.2,66.4,62.7,93,84,68,30.51,30.42,9,2,0,0.53
2013-7-5,81.5,72.2,0.0,71.9,66.7,62.3,91,82,68,30.50,30.41,7,2,0,20.07
2013-7-6,83.1,73.6,63.6,70.8,65.1,60.3,90,76,56,30.48,30.38,8,2,0,0.00
2013-7-7,77.7,68.5,63.3,69.5,64.0,29.5,91,86,72,30.42,30.33,8,1,0,0.24
2013-7-8,78.8,68.8,63.3,67.6,63.3,57.6,93,83,65,30.45,30.37,9,3,0,0.22
2013-7-9,83.8,72.7,64.0,71.3,65.5,60.8,91,79,60,30.43,30.33,7,3,0,0.22
2013-7-10,79.1,70.6,67.2,71.7,66.3,63.1,92,87,77,30.36,30.22,13,2,0,21.25
2013-7-11,76.8,69.2,64.0,69.5,65.2,61.2,93,87,77,30.24,30.17,6,1,0,0.75
2013-7-12,77.0,66.9,61.3,65.8,61.7,54.9,92,84,66,30.34,30.19,22,4,0,0.75
2013-7-13,64.4,63.0,61.8,60.9,59.4,58.5,90,88,86,30.38,30.32,33,8,0,0.00
2013-7-14,81.6,73.5,0.0,99.9,66.4,63.1,100,74,65,30.58,30.53,5,3,0,0.00
2013-7-15,87.2,74.5,64.7,71.8,66.3,61.4,90,77,56,30.61,30.53,5,3,0,0.00
2013-7-16,88.5,73.7,65.3,72.8,66.6,32.0,90,80,56,30.60,30.51,17,3,0,0.61
2013-7-17,88.3,73.5,64.7,75.8,68.2,30.0,92,84,63,30.56,30.44,6,1,0,0.41
2013-7-18,87.4,73.1,64.9,76.4,68.3,62.2,91,85,67,30.49,30.37,6,2,0,0.02
2013-7-19,84.0,73.1,67.1,75.6,68.3,0.0,91,85,72,30.39,30.25,8,2,0,0.02
2013-7-20,82.7,72.8,64.5,71.8,67.1,61.5,91,83,68,30.28,30.19,7,3,0,0.14
2013-7-21,81.5,70.1,-21.1,71.5,65.5,-23.5,91,85,68,30.29,30.21,6,3,0,0.02
2013-7-22,79.7,71.1,65.3,70.5,66.2,62.3,91,85,71,30.25,30.09,9,2,0,0.24
2013-7-23,80.2,71.4,65.8,68.3,65.0,38.3,90,81,63,30.12,30.05,10,3,0,0.04
2013-7-24,79.5,69.8,63.1,66.0,62.6,57.5,90,79,58,30.20,30.04,10,2,0,0.00
2013-7-25,76.1,66.3,57.7,60.7,57.4,38.6,88,74,27,30.33,30.18,7,2,0,0.00
2013-7-26,79.3,66.3,53.4,63.5,57.5,49.9,89,75,50,30.36,30.28,9,2,0,0.00
2013-7-27,70.3,66.2,63.6,65.6,62.3,60.3,90,87,81,30.30,30.18,6,2,0,0.65
2013-7-28,75.7,66.8,60.8,64.0,60.6,55.1,91,81,63,30.30,30.17,8,2,0,0.06
2013-7-29,71.7,61.7,51.2,58.2,53.6,48.0,90,76,58,30.47,30.30,7,2,0,0.00
2013-7-30,76.8,63.8,51.2,61.0,55.2,47.8,90,75,54,30.49,30.41,6,2,0,0.00
2013-7-31,66.7,62.4,60.4,62.3,58.5,56.5,91,87,80,30.42,30.26,5,4,114,0.60
2013-8-1,75.7,66.3,0.0,67.3,61.7,29.8,91,85,70,30.26,30.17,8,3,8,0.17
2013-8-2,77.0,66.3,-13.8,64.0,58.6,-15.9,90,77,56,30.32,30.21,9,2,9,0.17
2013-8-3,77.7,66.4,59.5,66.7,60.1,29.4,89,81,59,30.30,30.23,7,1,7,0.17
2013-8-4,74.4,65.4,57.5,60.5,57.2,51.7,90,76,58,30.34,30.23,9,2,9,0.17
2013-8-5,76.8,63.7,51.6,62.0,55.7,48.2,89,77,56,30.37,30.26,8,2,8,0.17
2013-8-6,79.8,68.3,62.4,65.8,61.2,57.9,88,79,60,30.28,30.22,7,1,7,0.17
2013-8-7,77.3,70.0,64.7,69.7,65.4,61.1,90,85,77,30.32,30.27,7,2,7,0.20
2013-8-8,76.1,69.6,65.6,71.2,66.1,62.6,90,89,83,30.31,30.27,6,1,6,0.59
2013-8-9,80.7,72.7,67.8,71.8,67.5,29.6,90,84,70,30.32,30.25,10,2,10,0.17
2013-8-10,79.8,71.7,67.8,70.4,66.4,64.4,89,84,69,30.37,30.30,57,10,57,0.33
2013-8-11,74.8,71.6,68.1,70.3,67.6,38.6,89,87,84,30.39,30.32,57,39,57,0.24
2013-8-12,80.4,71.0,64.7,69.8,65.1,61.4,89,82,60,30.36,30.24,57,16,57,0.17
2013-8-13,76.4,68.0,62.2,68.3,63.1,58.4,89,85,70,30.24,30.11,57,20,57,0.29
2013-8-14,69.4,60.8,51.9,58.4,52.3,24.7,89,75,56,30.32,30.18,57,26,57,0.17
2013-8-15,71.4,63.6,0.0,99.9,53.9,49.0,100,69,57,30.41,30.33,57,24,0,0.00
2013-8-16,75.0,61.3,0.0,59.7,52.8,45.5,89,74,55,30.43,30.35,57,38,0,0.00
2013-8-17,73.7,61.1,51.9,60.8,55.2,27.7,89,81,64,30.47,30.41,57,32,0,0.00
2013-8-18,69.4,62.6,57.9,64.0,58.8,54.4,90,87,82,30.47,30.40,57,40,0,0.12
2013-8-19,75.7,66.7,61.8,68.1,62.0,58.5,90,85,74,30.43,30.34,57,38,0,0.04
2013-8-20,82.0,69.1,58.6,69.2,62.0,55.4,90,79,53,30.46,30.38,57,45,0,0.00
2013-8-21,79.3,69.3,63.1,69.9,64.2,59.8,89,84,71,30.48,30.38,57,40,0,0.51
2013-8-22,77.9,66.9,0.0,69.5,62.2,-18.0,90,84,73,30.42,30.30,57,20,0,0.00
2013-8-23,77.1,67.0,59.5,68.6,61.6,55.3,90,83,68,30.40,30.27,57,30,0,0.02
2013-8-24,78.4,63.7,53.2,62.0,55.9,49.7,90,77,53,30.56,30.40,57,46,0,0.00
2013-8-25,76.1,64.1,53.7,62.2,55.8,50.1,89,76,56,30.63,30.52,57,27,0,0.00
2013-8-26,78.4,64.5,52.3,64.4,56.9,48.9,89,77,57,30.56,30.37,57,34,0,0.00
2013-8-27,80.4,69.6,61.3,69.1,63.3,40.3,89,81,65,30.38,30.26,57,35,0,0.00
2013-8-28,80.4,71.5,67.8,72.4,66.7,63.6,90,85,69,30.30,30.15,57,19,0,0.78
2013-8-29,69.6,68.4,68.1,66.2,65.0,33.1,89,89,89,30.22,30.17,57,42,0,0.00
2013-8-31,70.0,65.3,64.2,65.5,61.7,60.9,100,90,89,30.22,30.15,28,3,0,27.88
2013-9-1,75.7,67.9,63.5,69.3,64.1,32.8,90,88,79,30.18,30.10,57,25,0,0.00
2013-9-2,81.1,71.1,64.5,70.4,64.9,0.0,90,81,27,30.17,30.10,57,28,0,0.00
2013-9-3,75.9,67.9,58.2,66.3,60.4,53.7,90,78,57,30.28,30.12,57,25,0,0.00
2013-9-4,75.9,62.2,52.1,63.7,55.6,37.2,90,80,61,30.38,30.28,57,29,0,0.00
2013-9-5,75.9,62.5,51.6,63.1,55.7,48.5,90,79,61,30.41,30.36,57,34,0,0.00
2013-9-6,75.9,63.7,54.1,61.7,55.7,24.3,90,77,55,30.45,30.35,57,43,0,0.00
2013-9-7,78.4,63.8,53.2,62.0,54.4,49.7,89,74,45,30.37,30.25,57,39,0,0.00
2013-9-8,80.6,66.3,56.1,67.2,58.7,50.9,87,77,60,30.31,30.22,57,31,0,0.00
2013-9-9,78.6,68.2,60.6,68.7,62.7,57.0,90,83,71,30.42,30.30,57,24,0,0.00
2013-9-10,84.7,72.3,63.3,71.4,65.6,30.0,90,80,63,30.49,30.41,57,39,0,0.00
2013-9-11,83.6,72.1,63.6,72.7,65.9,60.3,89,81,60,30.48,30.35,57,38,0,0.00
2013-9-12,79.3,69.0,63.3,71.2,64.5,60.0,90,86,67,30.36,30.13,57,41,0,0.12
2013-9-13,67.4,61.1,51.2,60.0,53.2,45.4,90,76,53,30.23,30.07,57,19,0,0.02
2013-9-14,59.1,48.3,42.9,48.3,43.6,22.6,89,84,66,30.33,30.22,57,45,0,0.00
2013-9-15,71.2,64.3,0.0,99.9,56.0,51.3,100,72,61,30.44,30.34,57,7,0,0.00
2013-9-16,63.1,57.3,49.2,58.3,52.8,45.5,90,85,78,30.48,30.34,57,40,0,0.00
2013-9-17,67.8,55.1,44.2,56.1,48.4,41.5,91,79,59,30.56,30.47,57,29,0,0.00
2013-9-18,65.8,55.6,46.5,56.8,50.5,43.4,90,83,72,30.50,30.38,57,44,0,0.04
2013-9-19,68.9,61.2,10.5,63.5,57.8,7.2,90,88,83,30.41,30.31,57,42,0,0.06
2013-9-20,73.0,65.1,62.2,67.9,61.7,56.3,90,89,83,30.33,30.20,57,42,0,0.41
2013-9-21,66.3,61.7,54.8,62.7,58.6,51.9,91,90,87,30.20,29.98,57,12,0,0.63
2013-9-22,66.9,55.4,46.9,57.6,49.5,44.3,91,82,62,30.21,30.05,57,17,0,0.00
2013-9-23,68.9,53.2,41.9,56.5,47.0,35.9,90,80,59,30.30,30.20,63,42,0,0.00
2013-9-24,73.0,60.3,51.0,60.6,54.3,47.9,90,81,64,30.32,30.19,57,25,0,0.00
2013-9-25,64.5,58.7,0.0,99.9,56.8,54.0,100,87,82,30.18,30.13,57,41,0,0.02
2013-9-26,73.5,61.3,51.6,61.9,55.1,48.8,90,81,62,30.31,30.16,57,43,0,0.00
2013-9-27,71.0,56.2,0.0,99.9,50.6,43.8,100,80,60,30.45,30.30,57,35,0,0.00
2013-9-28,66.0,57.5,50.9,56.6,51.5,21.6,89,81,67,30.49,30.41,57,11,0,0.00
2013-9-29,69.8,56.9,46.4,56.9,50.3,27.5,90,79,62,30.42,30.27,57,34,0,0.00
2013-9-30,68.5,57.6,48.2,58.8,52.2,44.8,89,82,70,30.32,30.25,57,37,0,0.00
2013-10-1,73.0,60.5,52.3,61.6,54.4,21.6,90,81,27,30.38,30.29,57,45,0,0.00
2013-10-2,75.3,60.7,50.0,62.9,54.1,46.7,90,80,58,30.41,30.32,57,39,0,0.00
2013-10-3,75.3,62.7,53.4,63.6,56.3,20.3,90,80,63,30.40,30.32,57,40,0,0.00
2013-10-4,66.7,57.6,0.0,99.9,54.9,52.0,100,87,84,30.38,30.34,57,52,0,29.19
2013-10-5,79.8,66.5,57.0,66.2,59.5,53.8,90,79,58,30.41,30.30,57,42,0,0.00
2013-10-6,79.8,67.4,57.9,66.0,59.3,54.7,90,77,55,30.31,30.15,57,27,0,0.00
2013-10-7,66.0,57.5,46.0,60.0,51.3,41.0,90,80,67,30.31,30.04,57,8,0,0.85
2013-10-8,68.1,50.3,39.9,49.5,42.4,11.0,90,76,50,30.46,30.31,57,29,0,0.00
2013-10-9,67.6,50.6,41.7,46.5,40.1,-25.3,86,70,40,30.48,30.39,57,41,0,0.00
2013-10-10,68.5,58.7,48.7,61.0,53.6,1.7,89,85,71,30.40,30.24,57,44,0,0.08
2013-10-11,66.0,58.2,56.1,60.0,54.8,52.9,91,88,78,30.24,30.19,57,46,0,0.00
2013-10-12,68.7,65.4,0.0,99.9,61.3,58.5,100,83,78,30.33,30.28,57,33,0,0.00
2013-10-16,60.6,59.1,58.6,54.2,53.8,53.5,84,83,80,30.22,30.20,57,18,57,30.15
2013-10-17,62.0,57.2,47.8,58.7,53.6,18.7,90,88,84,30.20,30.02,57,36,57,0.20
2013-10-18,62.6,50.6,42.9,45.3,41.2,14.1,84,72,51,30.27,30.17,57,21,57,0.00
2013-10-19,57.0,47.9,42.4,51.4,43.1,37.2,89,84,64,30.20,30.05,57,27,57,0.02
2013-10-20,57.2,43.8,34.3,40.6,35.2,30.0,86,73,53,30.29,30.16,57,6,57,0.00
2013-10-21,64.0,49.7,34.7,45.0,38.2,30.2,88,66,45,30.33,30.16,57,12,57,0.00
2013-10-22,53.4,47.4,41.1,46.4,40.8,36.7,86,78,66,30.17,30.03,57,6,57,0.00
2013-10-23,46.0,39.3,33.6,41.4,35.4,29.6,90,86,75,30.15,29.93,57,10,57,0.10
2013-10-24,38.8,33.9,28.2,32.6,29.4,-2.2,89,83,72,30.33,30.15,57,8,57,0.06
2013-10-25,39.0,32.7,26.9,29.6,26.4,-21.5,88,78,66,30.50,30.32,71,7,71,0.00
2013-10-26,50.5,36.9,22.8,33.0,26.3,-0.2,88,68,45,30.47,30.19,57,7,57,0.00
2013-10-27,57.2,46.7,39.9,39.4,34.7,31.1,77,63,48,30.31,30.20,57,4,57,0.00
2013-10-28,57.5,45.3,34.3,45.8,39.0,29.7,88,79,64,30.46,30.30,57,19,57,0.12
2013-10-29,63.1,53.3,46.2,53.3,47.6,25.5,91,82,67,30.53,30.44,57,40,57,0.00
2013-10-30,56.8,54.3,51.4,54.0,50.5,-16.4,91,88,79,30.47,30.36,57,16,57,0.24
2013-10-31,62.9,57.4,53.4,58.3,53.2,4.8,91,86,74,30.38,29.95,57,9,57,0.00
2013-11-1,64.5,63.7,61.8,57.4,56.8,55.1,80,78,77,29.96,29.86,57,42,57,0.00
2013-11-4,49.6,42.1,0.0,99.9,30.5,27.4,100,61,51,30.55,30.16,57,5,0,0.00
2013-11-5,52.1,42.5,32.1,42.0,32.4,25.4,85,68,43,30.33,30.21,57,4,0,0.00
2013-11-6,65.6,54.3,46.2,53.3,46.8,42.0,88,77,58,30.23,29.92,57,8,0,0.00
2013-11-7,52.3,44.9,33.8,48.6,38.7,24.5,90,79,69,29.96,29.80,57,19,0,0.16
2013-11-8,38.4,33.3,32.5,27.0,25.0,24.2,77,71,69,30.05,29.95,12,3,0,0.00
2013-11-9,57.3,49.3,0.0,99.9,26.7,22.3,100,41,32,29.97,29.93,57,4,0,26.37
2013-11-10,54.1,43.1,33.4,36.4,28.2,22.7,73,56,38,30.09,29.91,57,4,0,0.00
2013-11-11,59.1,43.8,29.3,33.5,25.3,21.1,78,52,26,30.11,29.89,57,4,0,0.00
2013-11-12,48.0,34.1,23.9,34.5,23.0,15.3,78,65,36,30.19,29.84,15,4,0,0.00
2013-11-13,34.3,26.0,21.0,18.5,16.0,13.7,77,66,49,30.27,30.17,16,5,0,0.00
2013-11-14,52.7,34.6,20.1,26.3,18.9,14.1,78,55,31,30.19,30.05,18,5,0,0.00
2013-11-15,57.9,43.2,29.1,39.0,25.5,14.3,83,51,30,30.09,29.98,11,3,0,0.19
2013-11-16,62.4,49.7,42.0,52.3,44.6,38.3,90,83,68,30.09,30.00,7,2,0,0.02
2013-11-17,63.5,55.4,50.1,55.3,50.7,46.6,90,84,71,30.02,29.63,11,3,0,0.22
2013-11-18,55.7,48.6,38.4,52.8,35.6,27.0,90,63,37,29.85,29.65,21,5,0,0.24
2013-11-19,41.7,33.8,0.0,99.9,25.0,22.0,100,68,56,30.09,29.84,19,4,0,27.05
2013-11-20,48.0,36.0,27.3,27.9,22.9,19.8,74,60,41,30.22,30.08,12,3,0,0.00
2013-11-21,49.2,40.3,30.9,40.3,33.2,21.5,82,76,64,30.27,30.15,6,1,0,0.00
2013-11-22,54.6,49.6,44.7,51.7,45.9,39.9,91,87,82,30.15,29.93,15,2,0,0.04
2013-11-23,46.5,35.5,21.9,42.5,28.9,12.9,89,77,61,30.03,29.93,20,5,20,27.09
2013-11-24,23.3,17.5,13.2,16.1,6.3,4.0,84,61,48,30.21,30.01,24,7,24,0.00
2013-11-25,39.9,25.6,12.3,22.7,12.7,4.7,75,59,38,30.22,30.05,20,6,57,0.00
2013-11-26,41.3,35.6,29.1,38.9,32.4,21.9,91,88,74,30.05,29.48,15,3,57,2.08
2013-11-27,39.9,26.7,0.0,37.5,22.1,11.9,91,82,74,29.91,29.47,27,6,57,0.00
2013-11-28,33.6,22.9,16.8,21.7,15.5,11.7,82,73,60,30.12,29.91,18,4,57,0.02
2013-11-29,29.8,29.0,28.5,20.7,20.1,19.5,70,69,66,30.34,30.32,14,5,14,29.19
2013-11-30,39.2,30.1,23.0,26.6,21.2,17.0,80,69,59,30.33,30.08,14,4,57,0.02
2013-12-1,48.2,35.1,21.5,31.7,25.6,0.0,87,69,52,30.08,29.81,16,5,57,0.02
2013-12-2,50.9,42.7,37.7,39.0,33.9,30.1,79,71,62,29.81,29.65,6,2,6,0.02
2013-12-3,50.3,43.1,37.2,41.6,36.7,31.1,84,78,71,29.79,29.66,6,1,6,0.02
2013-12-4,62.7,50.5,40.8,50.5,44.1,37.2,90,79,63,29.87,29.76,7,2,7,0.02
2013-12-5,57.7,51.1,44.2,52.3,47.5,41.3,91,88,81,29.90,29.80,3,3,3,0.04
2013-12-6,55.9,47.4,36.8,53.3,44.8,34.7,92,91,90,29.93,29.74,18,3,18,1.37
2013-12-7,37.2,32.2,28.2,35.1,28.6,24.3,92,87,81,30.22,29.92,18,4,18,0.02
2013-12-8,32.5,29.0,28.0,30.2,25.8,24.3,91,88,84,30.20,29.95,20,5,20,0.37
2013-12-9,40.6,34.2,30.9,38.2,31.9,28.3,92,91,89,29.96,29.85,21,9,21,0.43
2013-12-10,31.8,28.4,23.5,29.5,24.0,14.8,92,84,69,30.02,29.75,17,5,17,0.02
2013-12-11,38.3,28.1,18.5,24.4,18.5,13.5,83,68,52,30.14,30.01,17,4,17,0.20
2013-12-12,27.6,22.0,0.0,99.9,11.0,6.0,100,61,44,30.15,30.03,17,6,17,0.02
2013-12-13,38.3,28.3,18.3,17.2,13.6,9.0,68,54,41,30.07,29.99,17,5,0,0.02
2013-12-14,34.3,31.8,28.7,30.3,27.1,16.6,90,83,55,30.04,29.53,14,4,0,0.22
2013-12-15,35.2,30.3,27.1,32.8,26.4,21.7,91,86,79,29.81,29.51,18,5,0,0.04
2013-12-16,35.4,29.4,0.0,99.9,25.3,21.9,100,83,79,29.90,29.79,15,4,0,0.06
2013-12-17,38.8,33.6,28.2,33.9,29.8,24.6,91,86,81,29.86,29.72,22,5,0,0.06
2013-12-18,34.5,28.4,23.3,24.6,20.4,17.0,87,72,63,30.01,29.84,30,5,0,0.04
2013-12-19,55.2,39.4,24.6,32.0,24.7,17.2,75,57,38,30.03,29.94,15,4,0,0.00
2013-12-20,53.7,44.7,35.7,42.5,31.4,24.2,74,59,46,29.96,29.86,3,1,0,0.00
2013-12-21,62.4,54.5,45.5,56.6,46.4,37.4,82,74,64,29.90,29.76,12,2,57,0.00
2013-12-22,64.2,56.3,51.6,57.7,52.4,49.1,91,87,79,29.91,29.74,28,5,57,0.67
2013-12-23,52.8,41.7,25.8,50.2,37.9,21.6,91,86,79,30.02,29.77,19,6,57,0.51
2013-12-24,29.8,22.8,13.8,23.4,16.5,7.1,85,77,66,30.17,29.98,20,6,57,0.00
2013-12-25,35.9,22.5,9.6,19.1,11.9,5.5,98,66,47,30.18,30.03,21,8,57,0.00
2013-12-26,37.7,29.2,20.8,25.5,17.6,10.7,71,62,47,30.12,29.98,17,6,17,0.00
2013-12-27,46.5,33.0,21.5,27.0,18.9,14.6,78,57,37,30.20,30.10,17,5,17,0.00
2013-12-28,49.2,37.4,25.8,28.0,21.9,16.3,69,54,40,30.14,29.94,15,4,15,0.02
2013-12-29,42.6,38.5,35.7,40.2,35.1,26.8,91,87,66,29.94,29.52,18,4,18,1.32
2013-12-30,37.9,32.2,0.0,34.4,27.8,22.9,88,83,79,29.92,29.72,10,4,10,0.00
2013-12-31,32.7,28.0,24.0,24.6,20.3,17.1,85,73,61,30.07,29.87,19,5,19,0.00
2014-1-1,49.8,33.4,21.5,31.2,22.5,16.7,84,65,44,30.11,29.86,17,4,17,0.00
2014-1-2,34.5,30.2,18.8,30.2,24.3,14.0,89,78,63,29.87,29.44,17,4,17,0.12